Time,TemperatureF,DewpointF,PressureIn,WindDirection,WindDirectionDegrees,WindSpeedMPH,WindSpeedGustMPH,Humidity,HourlyPrecipIn,Conditions,Clouds,dailyrainin,SoftwareType,DateUTC
2013-04-01 00:00:00,43.0,40.3,29.62,SW,225,8.0,16.0,90,0.00,,---,0.06,VWS V14.01,2013-04-01 04:00:00,
2013-04-01 00:01:00,43.0,40.3,29.62,SW,225,8.0,12.0,90,0.00,,---,0.00,VWS V14.01,2013-04-01 04:01:00,
2013-04-01 00:06:00,43.0,40.0,29.62,SW,225,8.0,16.0,89,0.00,,---,0.00,VWS V14.01,2013-04-01 04:06:00,
2013-04-01 00:11:00,43.0,40.0,29.62,SSE,158,14.0,18.0,89,0.00,,---,0.00,VWS V14.01,2013-04-01 04:11:00,
2013-04-01 00:12:00,43.0,39.7,29.62,SW,225,10.0,18.0,88,0.00,,---,0.00,VWS V14.01,2013-04-01 04:12:00,
2013-04-01 00:17:00,43.0,39.4,29.63,SSW,202,10.0,18.0,87,0.00,,---,0.00,VWS V14.01,2013-04-01 04:17:00,
2013-04-01 00:22:00,43.0,39.4,29.62,SW,225,11.0,19.0,87,0.00,,---,0.00,VWS V14.01,2013-04-01 04:22:00,
2013-04-01 00:28:00,43.0,39.1,29.62,WSW,248,11.0,19.0,86,0.00,,---,0.00,VWS V14.01,2013-04-01 04:28:00,
2013-04-01 00:33:00,43.0,39.1,29.62,SW,225,16.0,19.0,86,0.00,,---,0.00,VWS V14.01,2013-04-01 04:33:00,
2013-04-01 00:38:00,43.0,38.8,29.62,SW,225,9.0,19.0,85,0.00,,---,0.00,VWS V14.01,2013-04-01 04:38:00,
2013-04-01 00:43:00,43.0,38.8,29.62,SW,225,11.0,12.0,85,0.00,,---,0.00,VWS V14.01,2013-04-01 04:43:00,
2013-04-01 00:48:00,43.0,38.8,29.61,SW,225,7.0,13.0,85,0.00,,---,0.00,VWS V14.01,2013-04-01 04:48:00,
2013-04-01 00:53:00,43.0,38.8,29.61,SW,225,8.0,17.0,85,0.00,,---,0.00,VWS V14.01,2013-04-01 04:53:00,
2013-04-01 00:58:00,43.0,38.8,29.61,South,180,8.0,18.0,85,0.00,,---,0.00,VWS V14.01,2013-04-01 04:58:00,
2013-04-01 01:03:00,43.0,38.8,29.61,WSW,248,10.0,16.0,85,0.00,,---,0.00,VWS V14.01,2013-04-01 05:03:00,
2013-04-01 01:08:00,43.0,38.8,29.61,SW,225,8.0,16.0,85,0.00,,---,0.00,VWS V14.01,2013-04-01 05:08:00,
2013-04-01 01:13:00,43.0,38.8,29.60,WSW,248,11.0,16.0,85,0.00,,---,0.00,VWS V14.01,2013-04-01 05:13:00,
2013-04-01 01:19:00,43.0,39.1,29.61,SW,225,6.0,16.0,86,0.00,,---,0.00,VWS V14.01,2013-04-01 05:19:00,
2013-04-01 01:24:00,43.0,39.1,29.61,SW,225,6.0,11.0,86,0.00,,---,0.00,VWS V14.01,2013-04-01 05:24:00,
2013-04-01 01:29:00,43.0,39.4,29.62,SW,225,6.0,13.0,87,0.00,,---,0.00,VWS V14.01,2013-04-01 05:29:00,
2013-04-01 01:34:00,43.0,39.7,29.62,West,270,17.0,19.0,88,0.01,,---,0.01,VWS V14.01,2013-04-01 05:34:00,
2013-04-01 01:39:00,43.0,40.0,29.62,WSW,248,13.0,19.0,89,0.02,,---,0.02,VWS V14.01,2013-04-01 05:39:00,
2013-04-01 01:44:00,42.0,39.3,29.61,WSW,248,9.0,15.0,90,0.03,,---,0.03,VWS V14.01,2013-04-01 05:44:00,
2013-04-01 01:49:00,42.0,39.3,29.61,West,270,9.0,17.0,90,0.03,,---,0.03,VWS V14.01,2013-04-01 05:49:00,
2013-04-01 01:54:00,42.0,39.3,29.61,SW,225,6.0,17.0,90,0.03,,---,0.03,VWS V14.01,2013-04-01 05:54:00,
2013-04-01 01:59:00,42.0,39.3,29.61,WSW,248,5.0,17.0,90,0.03,,---,0.03,VWS V14.01,2013-04-01 05:59:00,
2013-04-01 02:04:00,42.0,39.6,29.60,SW,225,3.0,6.0,91,0.03,,---,0.03,VWS V14.01,2013-04-01 06:04:00,
2013-04-01 02:09:00,42.0,39.6,29.61,SW,225,6.0,9.0,91,0.03,,---,0.03,VWS V14.01,2013-04-01 06:09:00,
2013-04-01 02:15:00,42.0,39.8,29.61,WSW,248,8.0,10.0,92,0.04,,---,0.04,VWS V14.01,2013-04-01 06:15:00,
2013-04-01 02:20:00,42.0,39.8,29.60,WSW,248,10.0,19.0,92,0.05,,---,0.05,VWS V14.01,2013-04-01 06:20:00,
2013-04-01 02:25:00,42.0,40.1,29.61,WSW,248,10.0,14.0,93,0.06,,---,0.06,VWS V14.01,2013-04-01 06:25:00,
2013-04-01 02:30:00,42.0,39.6,29.61,WNW,292,11.0,21.0,91,0.07,,---,0.07,VWS V14.01,2013-04-01 06:30:00,
2013-04-01 02:35:00,42.0,39.3,29.60,West,270,10.0,22.0,90,0.07,,---,0.07,VWS V14.01,2013-04-01 06:35:00,
2013-04-01 02:40:00,42.0,39.3,29.61,WSW,248,9.0,22.0,90,0.07,,---,0.07,VWS V14.01,2013-04-01 06:40:00,
2013-04-01 02:45:00,41.0,38.3,29.60,West,270,11.0,16.0,90,0.05,,---,0.07,VWS V14.01,2013-04-01 06:45:00,
2013-04-01 02:50:00,41.0,38.3,29.60,West,270,5.0,16.0,90,0.05,,---,0.07,VWS V14.01,2013-04-01 06:50:00,
2013-04-01 02:55:00,41.0,38.3,29.60,WSW,248,8.0,16.0,90,0.05,,---,0.07,VWS V14.01,2013-04-01 06:55:00,
2013-04-01 03:00:00,41.0,38.3,29.60,WNW,292,5.0,6.0,90,0.04,,---,0.07,VWS V14.01,2013-04-01 07:00:00,
2013-04-01 03:06:00,41.0,38.6,29.60,West,270,3.0,8.0,91,0.04,,---,0.07,VWS V14.01,2013-04-01 07:06:00,
2013-04-01 03:11:00,41.0,38.6,29.60,West,270,5.0,8.0,91,0.04,,---,0.07,VWS V14.01,2013-04-01 07:11:00,
2013-04-01 03:16:00,41.0,38.6,29.60,West,270,6.0,8.0,91,0.04,,---,0.07,VWS V14.01,2013-04-01 07:16:00,
2013-04-01 03:21:00,41.0,38.9,29.60,WSW,248,6.0,6.0,92,0.03,,---,0.08,VWS V14.01,2013-04-01 07:21:00,
2013-04-01 03:26:00,41.0,38.9,29.60,West,270,6.0,6.0,92,0.04,,---,0.09,VWS V14.01,2013-04-01 07:26:00,
2013-04-01 03:31:00,41.0,39.1,29.60,WSW,248,6.0,8.0,93,0.05,,---,0.10,VWS V14.01,2013-04-01 07:31:00,
2013-04-01 03:36:00,41.0,39.1,29.60,WNW,292,5.0,8.0,93,0.05,,---,0.10,VWS V14.01,2013-04-01 07:36:00,
2013-04-01 03:41:00,41.0,39.1,29.59,WNW,292,1.0,5.0,93,0.03,,---,0.10,VWS V14.01,2013-04-01 07:41:00,
2013-04-01 03:47:00,41.0,39.4,29.60,WNW,292,3.0,6.0,94,0.03,,---,0.10,VWS V14.01,2013-04-01 07:47:00,
2013-04-01 03:52:00,40.0,38.4,29.60,West,270,4.0,6.0,94,0.04,,---,0.11,VWS V14.01,2013-04-01 07:52:00,
2013-04-01 03:57:00,40.0,38.4,29.60,NW,315,1.0,6.0,94,0.04,,---,0.11,VWS V14.01,2013-04-01 07:57:00,
2013-04-01 04:02:00,39.0,37.2,29.60,WNW,292,5.0,10.0,93,0.05,,---,0.12,VWS V14.01,2013-04-01 08:02:00,
2013-04-01 04:07:00,39.0,37.4,29.60,WNW,292,3.0,11.0,94,0.07,,---,0.14,VWS V14.01,2013-04-01 08:07:00,
2013-04-01 04:12:00,39.0,37.7,29.60,WNW,292,4.0,11.0,95,0.08,,---,0.15,VWS V14.01,2013-04-01 08:12:00,
2013-04-01 04:18:00,39.0,38.0,29.60,NW,315,2.0,13.0,96,0.08,,---,0.15,VWS V14.01,2013-04-01 08:18:00,
2013-04-01 04:23:00,39.0,38.0,29.60,WNW,292,2.0,11.0,96,0.07,,---,0.15,VWS V14.01,2013-04-01 08:23:00,
2013-04-01 04:28:00,38.0,36.7,29.61,West,270,7.0,13.0,95,0.07,,---,0.15,VWS V14.01,2013-04-01 08:28:00,
2013-04-01 04:33:00,38.0,36.7,29.61,WNW,292,7.0,14.0,95,0.07,,---,0.15,VWS V14.01,2013-04-01 08:33:00,
2013-04-01 04:38:00,37.0,35.7,29.62,WNW,292,8.0,14.0,95,0.07,,---,0.15,VWS V14.01,2013-04-01 08:38:00,
2013-04-01 04:43:00,37.0,35.7,29.62,WNW,292,6.0,8.0,95,0.05,,---,0.15,VWS V14.01,2013-04-01 08:43:00,
2013-04-01 04:48:00,37.0,35.7,29.62,WNW,292,5.0,10.0,95,0.05,,---,0.15,VWS V14.01,2013-04-01 08:48:00,
2013-04-01 04:53:00,38.0,37.0,29.63,WNW,292,7.0,12.0,96,0.05,,---,0.15,VWS V14.01,2013-04-01 08:53:00,
2013-04-01 04:58:00,38.0,37.0,29.63,WNW,292,10.0,18.0,96,0.05,,---,0.15,VWS V14.01,2013-04-01 08:58:00,
2013-04-01 05:03:00,38.0,37.0,29.63,WNW,292,11.0,16.0,96,0.04,,---,0.16,VWS V14.01,2013-04-01 09:03:00,
2013-04-01 05:08:00,37.0,35.7,29.63,WNW,292,8.0,16.0,95,0.04,,---,0.16,VWS V14.01,2013-04-01 09:08:00,
2013-04-01 05:14:00,37.0,35.7,29.63,WNW,292,3.0,16.0,95,0.04,,---,0.16,VWS V14.01,2013-04-01 09:14:00,
2013-04-01 05:19:00,37.0,35.7,29.63,West,270,4.0,16.0,95,0.04,,---,0.16,VWS V14.01,2013-04-01 09:19:00,
2013-04-01 05:24:00,37.0,35.7,29.64,WNW,292,12.0,12.0,95,0.01,,---,0.16,VWS V14.01,2013-04-01 09:24:00,
2013-04-01 05:29:00,37.0,35.4,29.64,WSW,248,10.0,12.0,94,0.01,,---,0.16,VWS V14.01,2013-04-01 09:29:00,
2013-04-01 05:34:00,37.0,35.2,29.64,WSW,248,8.0,16.0,93,0.01,,---,0.16,VWS V14.01,2013-04-01 09:34:00,
2013-04-01 05:39:00,37.0,34.9,29.64,WSW,248,10.0,18.0,92,0.01,,---,0.16,VWS V14.01,2013-04-01 09:39:00,
2013-04-01 05:44:00,37.0,34.9,29.64,WNW,292,5.0,11.0,92,0.01,,---,0.16,VWS V14.01,2013-04-01 09:44:00,
2013-04-01 05:49:00,37.0,34.9,29.64,WNW,292,5.0,11.0,92,0.01,,---,0.16,VWS V14.01,2013-04-01 09:49:00,
2013-04-01 05:54:00,37.0,35.2,29.64,WNW,292,6.0,11.0,93,0.01,,---,0.16,VWS V14.01,2013-04-01 09:54:00,
2013-04-01 06:00:00,36.0,34.2,29.64,WNW,292,6.0,11.0,93,0.01,,---,0.16,VWS V14.01,2013-04-01 10:00:00,
2013-04-01 06:05:00,36.0,33.9,29.64,WSW,248,6.0,8.0,92,0.01,,---,0.16,VWS V14.01,2013-04-01 10:05:00,
2013-04-01 06:10:00,36.0,33.9,29.65,West,270,4.0,12.0,92,0.01,,---,0.16,VWS V14.01,2013-04-01 10:10:00,
2013-04-01 06:15:00,36.0,34.2,29.65,West,270,12.0,13.0,93,0.01,,---,0.16,VWS V14.01,2013-04-01 10:15:00,
2013-04-01 06:20:00,36.0,34.2,29.66,West,270,7.0,13.0,93,0.01,,---,0.16,VWS V14.01,2013-04-01 10:20:00,
2013-04-01 06:25:00,36.0,34.2,29.65,WSW,248,11.0,16.0,93,0.00,,---,0.16,VWS V14.01,2013-04-01 10:25:00,
2013-04-01 06:30:00,36.0,34.2,29.66,WSW,248,9.0,16.0,93,0.00,,---,0.16,VWS V14.01,2013-04-01 10:30:00,
2013-04-01 06:35:00,36.0,34.4,29.67,WNW,292,14.0,17.0,94,0.00,,---,0.16,VWS V14.01,2013-04-01 10:35:00,
2013-04-01 06:40:00,34.0,31.9,29.67,NW,315,8.0,15.0,92,0.00,,---,0.16,VWS V14.01,2013-04-01 10:40:00,
2013-04-01 06:45:00,34.0,32.5,29.68,WNW,292,14.0,17.0,94,0.00,,---,0.16,VWS V14.01,2013-04-01 10:45:00,
2013-04-01 06:50:00,33.0,31.5,29.68,WNW,292,10.0,17.0,94,0.01,,---,0.17,VWS V14.01,2013-04-01 10:50:00,
2013-04-01 06:55:00,32.0,30.5,29.69,North,0,11.0,23.0,94,0.01,,---,0.17,VWS V14.01,2013-04-01 10:55:00,
2013-04-01 07:01:00,31.0,29.5,29.70,NNW,338,12.0,14.0,94,0.01,,---,0.17,VWS V14.01,2013-04-01 11:01:00,
2013-04-01 07:06:00,31.0,29.7,29.71,NNW,338,11.0,23.0,95,0.01,,---,0.17,VWS V14.01,2013-04-01 11:06:00,
2013-04-01 07:11:00,30.0,29.0,29.71,NNW,338,5.0,23.0,96,0.01,,---,0.17,VWS V14.01,2013-04-01 11:11:00,
2013-04-01 07:16:00,30.0,29.0,29.71,NNW,338,6.0,23.0,96,0.01,,---,0.17,VWS V14.01,2013-04-01 11:16:00,
2013-04-01 07:21:00,30.0,29.0,29.71,NNW,338,3.0,17.0,96,0.01,,---,0.17,VWS V14.01,2013-04-01 11:21:00,
2013-04-01 07:26:00,30.0,29.0,29.72,NW,315,7.0,17.0,96,0.01,,---,0.17,VWS V14.01,2013-04-01 11:26:00,
2013-04-01 07:31:00,30.0,28.7,29.72,NNW,338,11.0,23.0,95,0.01,,---,0.17,VWS V14.01,2013-04-01 11:31:00,
2013-04-01 07:36:00,29.0,27.5,29.73,NW,315,10.0,23.0,94,0.01,,---,0.17,VWS V14.01,2013-04-01 11:36:00,
2013-04-01 07:41:00,29.0,27.5,29.74,WNW,292,4.0,16.0,94,0.01,,---,0.17,VWS V14.01,2013-04-01 11:41:00,
2013-04-01 07:47:00,29.0,27.5,29.74,NW,315,8.0,16.0,94,0.01,,---,0.17,VWS V14.01,2013-04-01 11:47:00,
2013-04-01 07:52:00,29.0,27.8,29.75,NNW,338,4.0,16.0,95,0.01,,---,0.17,VWS V14.01,2013-04-01 11:52:00,
2013-04-01 07:57:00,28.0,26.8,29.75,NW,315,10.0,16.0,95,0.01,,---,0.17,VWS V14.01,2013-04-01 11:57:00,
2013-04-01 08:02:00,28.0,26.8,29.76,NW,315,6.0,13.0,95,0.00,,---,0.17,VWS V14.01,2013-04-01 12:02:00,
2013-04-01 08:08:00,28.0,27.0,29.76,WNW,292,3.0,13.0,96,0.00,,---,0.17,VWS V14.01,2013-04-01 12:08:00,
2013-04-01 08:13:00,28.0,26.8,29.77,WNW,292,4.0,19.0,95,0.00,,---,0.17,VWS V14.01,2013-04-01 12:13:00,
2013-04-01 08:18:00,28.0,26.8,29.77,West,270,7.0,21.0,95,0.00,,---,0.17,VWS V14.01,2013-04-01 12:18:00,
2013-04-01 08:23:00,28.0,26.5,29.77,WNW,292,11.0,15.0,94,0.00,,---,0.17,VWS V14.01,2013-04-01 12:23:00,
2013-04-01 08:28:00,28.0,25.5,29.77,NW,315,11.0,19.0,90,0.00,,---,0.17,VWS V14.01,2013-04-01 12:28:00,
2013-04-01 08:33:00,28.0,25.7,29.77,WNW,292,8.0,19.0,91,0.00,,---,0.17,VWS V14.01,2013-04-01 12:33:00,
2013-04-01 08:38:00,28.0,25.5,29.77,WNW,292,14.0,19.0,90,0.00,,---,0.17,VWS V14.01,2013-04-01 12:38:00,
2013-04-01 08:43:00,29.0,26.4,29.77,West,270,9.0,14.0,90,0.00,,---,0.17,VWS V14.01,2013-04-01 12:43:00,
2013-04-01 08:48:00,29.0,26.4,29.78,WNW,292,11.0,14.0,90,0.00,,---,0.17,VWS V14.01,2013-04-01 12:48:00,
2013-04-01 08:53:00,29.0,26.2,29.78,WNW,292,6.0,16.0,89,0.00,,---,0.17,VWS V14.01,2013-04-01 12:53:00,
2013-04-01 08:58:00,28.0,25.2,29.78,NW,315,11.0,18.0,89,0.00,,---,0.17,VWS V14.01,2013-04-01 12:58:00,
2013-04-01 09:04:00,28.0,25.5,29.78,WNW,292,10.0,18.0,90,0.00,,---,0.17,VWS V14.01,2013-04-01 13:04:00,
2013-04-01 09:09:00,29.0,26.4,29.78,WNW,292,12.0,18.0,90,0.00,,---,0.17,VWS V14.01,2013-04-01 13:09:00,
2013-04-01 09:14:00,29.0,26.4,29.79,WSW,248,8.0,18.0,90,0.00,,---,0.17,VWS V14.01,2013-04-01 13:14:00,
2013-04-01 09:19:00,29.0,24.8,29.78,West,270,17.0,20.0,84,0.00,,---,0.17,VWS V14.01,2013-04-01 13:19:00,
2013-04-01 09:24:00,30.0,25.5,29.79,NNW,338,6.0,19.0,83,0.00,,---,0.17,VWS V14.01,2013-04-01 13:24:00,
2013-04-01 09:29:00,30.0,24.3,29.79,WNW,292,14.0,24.0,79,0.00,,---,0.17,VWS V14.01,2013-04-01 13:29:00,
2013-04-01 09:35:00,30.0,24.0,29.79,West,270,11.0,24.0,78,0.00,,---,0.17,VWS V14.01,2013-04-01 13:35:00,
2013-04-01 09:40:00,30.0,23.4,29.79,NW,315,6.0,24.0,76,0.00,,---,0.17,VWS V14.01,2013-04-01 13:40:00,
2013-04-01 09:45:00,30.0,23.7,29.80,WNW,292,5.0,19.0,77,0.00,,---,0.17,VWS V14.01,2013-04-01 13:45:00,
2013-04-01 09:50:00,30.0,24.0,29.80,WNW,292,5.0,19.0,78,0.00,,---,0.17,VWS V14.01,2013-04-01 13:50:00,
2013-04-01 09:55:00,29.0,21.8,29.80,WNW,292,16.0,24.0,74,0.00,,---,0.17,VWS V14.01,2013-04-01 13:55:00,
2013-04-01 10:00:00,30.0,24.6,29.80,WNW,292,14.0,24.0,80,0.00,,---,0.17,VWS V14.01,2013-04-01 14:00:00,
2013-04-01 10:05:00,30.0,23.4,29.80,WNW,292,5.0,19.0,76,0.00,,---,0.17,VWS V14.01,2013-04-01 14:05:00,
2013-04-01 10:10:00,29.0,22.1,29.80,WNW,292,8.0,19.0,75,0.00,,---,0.17,VWS V14.01,2013-04-01 14:10:00,
2013-04-01 10:15:00,30.0,23.4,29.81,WNW,292,14.0,19.0,76,0.00,,---,0.17,VWS V14.01,2013-04-01 14:15:00,
2013-04-01 10:20:00,29.0,23.0,29.81,WNW,292,6.0,13.0,78,0.00,,---,0.17,VWS V14.01,2013-04-01 14:20:00,
2013-04-01 10:25:00,29.0,24.5,29.82,NNW,338,6.0,20.0,83,0.00,,---,0.17,VWS V14.01,2013-04-01 14:25:00,
2013-04-01 10:30:00,28.0,23.8,29.82,NW,315,6.0,20.0,84,0.00,,---,0.17,VWS V14.01,2013-04-01 14:30:00,
2013-04-01 10:36:00,29.0,24.5,29.82,NW,315,14.0,22.0,83,0.00,,---,0.17,VWS V14.01,2013-04-01 14:36:00,
2013-04-01 10:41:00,29.0,22.1,29.83,WNW,292,19.0,21.0,75,0.00,,---,0.17,VWS V14.01,2013-04-01 14:41:00,
2013-04-01 10:46:00,29.0,18.4,29.83,WNW,292,23.0,24.0,64,0.00,,---,0.17,VWS V14.01,2013-04-01 14:46:00,
2013-04-01 10:51:00,30.0,19.3,29.83,WNW,292,14.0,27.0,64,0.00,,---,0.17,VWS V14.01,2013-04-01 14:51:00,
2013-04-01 10:57:00,29.0,17.6,29.83,WNW,292,19.0,27.0,62,0.00,,---,0.17,VWS V14.01,2013-04-01 14:57:00,
2013-04-01 11:02:00,29.0,18.0,29.83,WNW,292,11.0,19.0,63,0.00,,---,0.17,VWS V14.01,2013-04-01 15:02:00,
2013-04-01 11:07:00,30.0,20.0,29.83,WSW,248,9.0,24.0,66,0.00,,---,0.17,VWS V14.01,2013-04-01 15:07:00,
2013-04-01 11:12:00,29.0,16.9,29.84,WNW,292,15.0,31.0,60,0.00,,---,0.17,VWS V14.01,2013-04-01 15:12:00,
2013-04-01 11:17:00,29.0,16.5,29.84,West,270,9.0,31.0,59,0.00,,---,0.17,VWS V14.01,2013-04-01 15:17:00,
2013-04-01 11:22:00,30.0,19.3,29.84,NW,315,5.0,18.0,64,0.00,,---,0.17,VWS V14.01,2013-04-01 15:22:00,
2013-04-01 11:27:00,30.0,18.2,29.84,NW,315,4.0,18.0,61,0.00,,---,0.17,VWS V14.01,2013-04-01 15:27:00,
2013-04-01 11:32:00,30.0,17.8,29.84,NW,315,11.0,19.0,60,0.00,,---,0.17,VWS V14.01,2013-04-01 15:32:00,
2013-04-01 11:37:00,30.0,18.6,29.85,NW,315,11.0,21.0,62,0.00,,---,0.17,VWS V14.01,2013-04-01 15:37:00,
2013-04-01 11:42:00,30.0,18.6,29.85,WNW,292,15.0,15.0,62,0.00,,---,0.17,VWS V14.01,2013-04-01 15:42:00,
2013-04-01 11:47:00,30.0,16.6,29.85,WNW,292,11.0,27.0,57,0.00,,---,0.17,VWS V14.01,2013-04-01 15:47:00,
2013-04-01 11:53:00,31.0,18.8,29.85,NNW,338,7.0,27.0,60,0.00,,---,0.17,VWS V14.01,2013-04-01 15:53:00,
2013-04-01 11:58:00,30.0,17.4,29.86,NW,315,5.0,27.0,59,0.00,,---,0.17,VWS V14.01,2013-04-01 15:58:00,
2013-04-01 12:03:00,30.0,18.6,29.86,NNW,338,7.0,19.0,62,0.00,,---,0.17,VWS V14.01,2013-04-01 16:03:00,
2013-04-01 12:08:00,30.0,17.8,29.87,NW,315,13.0,21.0,60,0.00,,---,0.17,VWS V14.01,2013-04-01 16:08:00,
2013-04-01 12:13:00,31.0,18.0,29.87,ENE,68,3.0,24.0,58,0.00,,---,0.17,VWS V14.01,2013-04-01 16:13:00,
2013-04-01 12:18:00,30.0,17.4,29.87,NE,45,11.0,24.0,59,0.00,,---,0.17,VWS V14.01,2013-04-01 16:18:00,
2013-04-01 12:23:00,29.0,16.1,29.87,NW,315,11.0,22.0,58,0.00,,---,0.17,VWS V14.01,2013-04-01 16:23:00,
2013-04-01 12:28:00,29.0,16.9,29.87,WNW,292,13.0,23.0,60,0.00,,---,0.17,VWS V14.01,2013-04-01 16:28:00,
2013-04-01 12:33:00,30.0,17.0,29.87,West,270,11.0,23.0,58,0.00,,---,0.17,VWS V14.01,2013-04-01 16:33:00,
2013-04-01 12:38:00,29.0,15.7,29.87,WNW,292,14.0,24.0,57,0.00,,---,0.17,VWS V14.01,2013-04-01 16:38:00,
2013-04-01 12:43:00,29.0,17.2,29.87,West,270,5.0,22.0,61,0.00,,---,0.17,VWS V14.01,2013-04-01 16:43:00,
2013-04-01 12:49:00,29.0,15.7,29.88,NW,315,10.0,22.0,57,0.00,,---,0.17,VWS V14.01,2013-04-01 16:49:00,
2013-04-01 12:54:00,30.0,16.2,29.88,WSW,248,19.0,23.0,56,0.00,,---,0.17,VWS V14.01,2013-04-01 16:54:00,
2013-04-01 12:59:00,31.0,17.2,29.88,WNW,292,21.0,23.0,56,0.00,,---,0.17,VWS V14.01,2013-04-01 16:59:00,
2013-04-01 13:04:00,30.0,14.1,29.88,WSW,248,15.0,24.0,51,0.00,,---,0.17,VWS V14.01,2013-04-01 17:04:00,
2013-04-01 13:09:00,31.0,15.4,29.88,WNW,292,10.0,29.0,52,0.00,,---,0.17,VWS V14.01,2013-04-01 17:09:00,
2013-04-01 13:14:00,31.0,15.4,29.88,WNW,292,12.0,29.0,52,0.00,,---,0.17,VWS V14.01,2013-04-01 17:14:00,
2013-04-01 13:19:00,30.0,15.0,29.88,WNW,292,16.0,29.0,53,0.00,,---,0.17,VWS V14.01,2013-04-01 17:19:00,
2013-04-01 13:24:00,30.0,15.4,29.88,West,270,12.0,23.0,54,0.00,,---,0.17,VWS V14.01,2013-04-01 17:24:00,
2013-04-01 13:30:00,31.0,15.9,29.88,West,270,6.0,23.0,53,0.00,,---,0.17,VWS V14.01,2013-04-01 17:30:00,
2013-04-01 13:35:00,31.0,15.4,29.89,WNW,292,21.0,23.0,52,0.00,,---,0.17,VWS V14.01,2013-04-01 17:35:00,
2013-04-01 13:40:00,32.0,18.5,29.88,NNW,338,11.0,23.0,57,0.00,,---,0.17,VWS V14.01,2013-04-01 17:40:00,
2013-04-01 13:45:00,30.0,15.4,29.89,WNW,292,15.0,24.0,54,0.00,,---,0.17,VWS V14.01,2013-04-01 17:45:00,
2013-04-01 13:50:00,30.0,14.5,29.89,NNW,338,7.0,24.0,52,0.00,,---,0.17,VWS V14.01,2013-04-01 17:50:00,
2013-04-01 13:55:00,30.0,15.4,29.89,WNW,292,4.0,24.0,54,0.00,,---,0.17,VWS V14.01,2013-04-01 17:55:00,
2013-04-01 14:00:00,30.0,15.4,29.89,WNW,292,15.0,16.0,54,0.00,,---,0.17,VWS V14.01,2013-04-01 18:00:00,
2013-04-01 14:05:00,30.0,16.6,29.89,NW,315,6.0,19.0,57,0.00,,---,0.17,VWS V14.01,2013-04-01 18:05:00,
2013-04-01 14:10:00,30.0,16.6,29.89,WNW,292,11.0,21.0,57,0.00,,---,0.17,VWS V14.01,2013-04-01 18:10:00,
2013-04-01 14:15:00,30.0,16.2,29.89,NW,315,8.0,22.0,56,0.00,,---,0.17,VWS V14.01,2013-04-01 18:15:00,
2013-04-01 14:20:00,29.0,13.6,29.89,WNW,292,18.0,21.0,52,0.00,,---,0.17,VWS V14.01,2013-04-01 18:20:00,
2013-04-01 14:26:00,30.0,13.6,29.89,NW,315,21.0,23.0,50,0.00,,---,0.17,VWS V14.01,2013-04-01 18:26:00,
2013-04-01 14:31:00,30.0,14.1,29.89,NNW,338,11.0,24.0,51,0.00,,---,0.17,VWS V14.01,2013-04-01 18:31:00,
2013-04-01 14:36:00,30.0,13.6,29.90,WNW,292,11.0,24.0,50,0.00,,---,0.17,VWS V14.01,2013-04-01 18:36:00,
2013-04-01 14:41:00,30.0,15.0,29.89,WNW,292,13.0,19.0,53,0.00,,---,0.17,VWS V14.01,2013-04-01 18:41:00,
2013-04-01 14:46:00,29.0,13.6,29.89,WNW,292,12.0,26.0,52,0.00,,---,0.17,VWS V14.01,2013-04-01 18:46:00,
2013-04-01 14:51:00,30.0,15.8,29.90,WNW,292,16.0,26.0,55,0.00,,---,0.17,VWS V14.01,2013-04-01 18:51:00,
2013-04-01 14:56:00,30.0,15.0,29.90,WNW,292,14.0,26.0,53,0.00,,---,0.17,VWS V14.01,2013-04-01 18:56:00,
2013-04-01 15:02:00,30.0,15.4,29.90,NW,315,11.0,16.0,54,0.00,,---,0.17,VWS V14.01,2013-04-01 19:02:00,
2013-04-01 15:07:00,30.0,15.0,29.90,NW,315,5.0,22.0,53,0.00,,---,0.17,VWS V14.01,2013-04-01 19:07:00,
2013-04-01 15:12:00,30.0,14.1,29.90,WNW,292,18.0,23.0,51,0.00,,---,0.17,VWS V14.01,2013-04-01 19:12:00,
2013-04-01 15:17:00,29.0,12.7,29.90,WNW,292,17.0,24.0,50,0.00,,---,0.17,VWS V14.01,2013-04-01 19:17:00,
2013-04-01 15:22:00,30.0,14.1,29.90,WNW,292,18.0,21.0,51,0.00,,---,0.17,VWS V14.01,2013-04-01 19:22:00,
2013-04-01 15:27:00,31.0,15.9,29.90,WNW,292,7.0,21.0,53,0.00,,---,0.17,VWS V14.01,2013-04-01 19:27:00,
2013-04-01 15:32:00,31.0,15.4,29.90,NW,315,5.0,21.0,52,0.00,,---,0.17,VWS V14.01,2013-04-01 19:32:00,
2013-04-01 15:37:00,30.0,14.5,29.90,WNW,292,17.0,21.0,52,0.00,,---,0.17,VWS V14.01,2013-04-01 19:37:00,
2013-04-01 15:42:00,30.0,14.1,29.91,WNW,292,8.0,17.0,51,0.00,,---,0.17,VWS V14.01,2013-04-01 19:42:00,
2013-04-01 15:47:00,30.0,13.6,29.90,WNW,292,8.0,17.0,50,0.00,,---,0.17,VWS V14.01,2013-04-01 19:47:00,
2013-04-01 15:53:00,30.0,13.6,29.90,WNW,292,11.0,21.0,50,0.00,,---,0.17,VWS V14.01,2013-04-01 19:53:00,
2013-04-01 15:58:00,30.0,12.7,29.91,WNW,292,15.0,26.0,48,0.00,,---,0.17,VWS V14.01,2013-04-01 19:58:00,
2013-04-01 16:03:00,30.0,13.6,29.91,WSW,248,8.0,13.0,50,0.00,,---,0.17,VWS V14.01,2013-04-01 20:03:00,
2013-04-01 16:08:00,31.0,14.1,29.91,WNW,292,9.0,20.0,49,0.00,,---,0.17,VWS V14.01,2013-04-01 20:08:00,
2013-04-01 16:13:00,30.0,12.2,29.92,NW,315,12.0,25.0,47,0.00,,---,0.17,VWS V14.01,2013-04-01 20:13:00,
2013-04-01 16:18:00,30.0,12.7,29.91,West,270,19.0,25.0,48,0.00,,---,0.17,VWS V14.01,2013-04-01 20:18:00,
2013-04-01 16:23:00,31.0,13.1,29.91,WSW,248,19.0,22.0,47,0.00,,---,0.17,VWS V14.01,2013-04-01 20:23:00,
2013-04-01 16:28:00,30.0,11.2,29.91,West,270,14.0,23.0,45,0.00,,---,0.17,VWS V14.01,2013-04-01 20:28:00,
2013-04-01 16:33:00,30.0,11.2,29.91,West,270,12.0,26.0,45,0.00,,---,0.17,VWS V14.01,2013-04-01 20:33:00,
2013-04-01 16:38:00,31.0,12.2,29.92,WNW,292,21.0,26.0,45,0.00,,---,0.17,VWS V14.01,2013-04-01 20:38:00,
2013-04-01 16:43:00,31.0,11.7,29.92,WNW,292,13.0,20.0,44,0.00,,---,0.17,VWS V14.01,2013-04-01 20:43:00,
2013-04-01 16:49:00,31.0,12.7,29.92,NW,315,11.0,22.0,46,0.00,,---,0.17,VWS V14.01,2013-04-01 20:49:00,
2013-04-01 16:54:00,31.0,12.2,29.92,NW,315,7.0,22.0,45,0.00,,---,0.17,VWS V14.01,2013-04-01 20:54:00,
2013-04-01 16:59:00,31.0,12.2,29.92,NW,315,6.0,22.0,45,0.00,,---,0.17,VWS V14.01,2013-04-01 20:59:00,
2013-04-01 17:04:00,31.0,11.7,29.92,NW,315,11.0,24.0,44,0.00,,---,0.17,VWS V14.01,2013-04-01 21:04:00,
2013-04-01 17:09:00,30.0,10.2,29.92,WNW,292,16.0,26.0,43,0.00,,---,0.17,VWS V14.01,2013-04-01 21:09:00,
2013-04-01 17:14:00,30.0,12.2,29.93,WNW,292,17.0,26.0,47,0.00,,---,0.17,VWS V14.01,2013-04-01 21:14:00,
2013-04-01 17:19:00,30.0,11.7,29.92,NW,315,19.0,26.0,46,0.00,,---,0.17,VWS V14.01,2013-04-01 21:19:00,
2013-04-01 17:24:00,30.0,10.7,29.92,WNW,292,8.0,21.0,44,0.00,,---,0.17,VWS V14.01,2013-04-01 21:24:00,
2013-04-01 17:29:00,30.0,11.2,29.92,WNW,292,16.0,23.0,45,0.00,,---,0.17,VWS V14.01,2013-04-01 21:29:00,
2013-04-01 17:35:00,30.0,12.7,29.92,West,270,10.0,24.0,48,0.00,,---,0.17,VWS V14.01,2013-04-01 21:35:00,
2013-04-01 17:40:00,30.0,13.2,29.92,WNW,292,12.0,24.0,49,0.00,,---,0.17,VWS V14.01,2013-04-01 21:40:00,
2013-04-01 17:45:00,30.0,13.2,29.92,WNW,292,18.0,18.0,49,0.00,,---,0.17,VWS V14.01,2013-04-01 21:45:00,
2013-04-01 17:50:00,30.0,13.2,29.92,West,270,11.0,20.0,49,0.00,,---,0.17,VWS V14.01,2013-04-01 21:50:00,
2013-04-01 17:55:00,31.0,14.1,29.92,WSW,248,11.0,20.0,49,0.00,,---,0.17,VWS V14.01,2013-04-01 21:55:00,
2013-04-01 18:00:00,30.0,13.2,29.93,WNW,292,14.0,16.0,49,0.00,,---,0.17,VWS V14.01,2013-04-01 22:00:00,
2013-04-01 18:05:00,30.0,14.5,29.93,West,270,9.0,22.0,52,0.00,,---,0.17,VWS V14.01,2013-04-01 22:05:00,
2013-04-01 18:10:00,30.0,14.1,29.93,WNW,292,15.0,22.0,51,0.00,,---,0.17,VWS V14.01,2013-04-01 22:10:00,
2013-04-01 18:15:00,30.0,13.2,29.92,NW,315,16.0,22.0,49,0.00,,---,0.17,VWS V14.01,2013-04-01 22:15:00,
2013-04-01 18:20:00,30.0,13.6,29.92,West,270,2.0,5.0,50,0.00,,---,0.17,VWS V14.01,2013-04-01 22:20:00,
2013-04-01 18:25:00,30.0,12.7,29.92,WNW,292,15.0,23.0,48,0.00,,---,0.17,VWS V14.01,2013-04-01 22:25:00,
2013-04-01 18:31:00,30.0,13.6,29.93,WNW,292,10.0,23.0,50,0.00,,---,0.17,VWS V14.01,2013-04-01 22:31:00,
2013-04-01 18:36:00,30.0,13.6,29.92,WSW,248,15.0,23.0,50,0.00,,---,0.17,VWS V14.01,2013-04-01 22:36:00,
2013-04-01 18:41:00,30.0,14.1,29.93,WNW,292,8.0,12.0,51,0.00,,---,0.17,VWS V14.01,2013-04-01 22:41:00,
2013-04-01 18:46:00,30.0,14.5,29.93,WNW,292,14.0,14.0,52,0.00,,---,0.17,VWS V14.01,2013-04-01 22:46:00,
2013-04-01 18:51:00,30.0,14.1,29.93,WNW,292,13.0,21.0,51,0.00,,---,0.17,VWS V14.01,2013-04-01 22:51:00,
2013-04-01 18:56:00,30.0,14.5,29.93,WNW,292,9.0,21.0,52,0.00,,---,0.17,VWS V14.01,2013-04-01 22:56:00,
2013-04-01 19:01:00,29.0,16.5,29.93,WNW,292,8.0,8.0,59,0.00,,---,0.17,VWS V14.01,2013-04-01 23:01:00,
2013-04-01 19:06:00,29.0,16.5,29.93,NW,315,3.0,14.0,59,0.00,,---,0.17,VWS V14.01,2013-04-01 23:06:00,
2013-04-01 19:12:00,29.0,17.2,29.93,WNW,292,7.0,14.0,61,0.00,,---,0.17,VWS V14.01,2013-04-01 23:12:00,
2013-04-01 19:17:00,29.0,13.6,29.93,West,270,5.0,22.0,52,0.00,,---,0.17,VWS V14.01,2013-04-01 23:17:00,
2013-04-01 19:22:00,29.0,15.3,29.93,WNW,292,8.0,11.0,56,0.00,,---,0.17,VWS V14.01,2013-04-01 23:22:00,
2013-04-01 19:27:00,29.0,14.0,29.93,WNW,292,8.0,13.0,53,0.00,,---,0.17,VWS V14.01,2013-04-01 23:27:00,
2013-04-01 19:33:00,30.0,13.6,29.93,West,270,26.0,26.0,50,0.00,,---,0.17,VWS V14.01,2013-04-01 23:33:00,
2013-04-01 19:38:00,30.0,12.7,29.93,WNW,292,9.0,26.0,48,0.00,,---,0.17,VWS V14.01,2013-04-01 23:38:00,
2013-04-01 19:43:00,30.0,13.2,29.93,WNW,292,10.0,16.0,49,0.00,,---,0.17,VWS V14.01,2013-04-01 23:43:00,
2013-04-01 19:48:00,30.0,13.2,29.93,West,270,16.0,16.0,49,0.00,,---,0.17,VWS V14.01,2013-04-01 23:48:00,
2013-04-01 19:53:00,29.0,11.8,29.93,WNW,292,11.0,21.0,48,0.00,,---,0.17,VWS V14.01,2013-04-01 23:53:00,
2013-04-01 19:58:00,29.0,12.2,29.93,WNW,292,13.0,21.0,49,0.00,,---,0.17,VWS V14.01,2013-04-01 23:58:00,
2013-04-01 20:03:00,29.0,15.3,29.94,WNW,292,6.0,18.0,56,0.00,,---,0.17,VWS V14.01,2013-04-02 00:03:00,
2013-04-01 20:08:00,28.0,19.2,29.93,NW,315,3.0,18.0,69,0.00,,---,0.17,VWS V14.01,2013-04-02 00:08:00,
2013-04-01 20:14:00,28.0,20.2,29.94,WSW,248,6.0,18.0,72,0.00,,---,0.17,VWS V14.01,2013-04-02 00:14:00,
2013-04-01 20:19:00,28.0,21.1,29.94,NW,315,2.0,18.0,75,0.00,,---,0.17,VWS V14.01,2013-04-02 00:19:00,
2013-04-01 20:24:00,27.0,20.8,29.94,WNW,292,3.0,6.0,77,0.00,,---,0.17,VWS V14.01,2013-04-02 00:24:00,
2013-04-01 20:29:00,27.0,21.7,29.94,NNW,338,6.0,12.0,80,0.00,,---,0.17,VWS V14.01,2013-04-02 00:29:00,
2013-04-01 20:34:00,27.0,22.2,29.94,West,270,3.0,16.0,82,0.00,,---,0.17,VWS V14.01,2013-04-02 00:34:00,
2013-04-01 20:39:00,27.0,23.9,29.94,WNW,292,5.0,16.0,88,0.00,,---,0.17,VWS V14.01,2013-04-02 00:39:00,
2013-04-01 20:45:00,26.0,23.7,29.95,NW,315,8.0,14.0,91,0.00,,---,0.17,VWS V14.01,2013-04-02 00:45:00,
2013-04-01 20:50:00,26.0,24.3,29.95,NNW,338,5.0,19.0,93,0.00,,---,0.17,VWS V14.01,2013-04-02 00:50:00,
2013-04-01 20:55:00,25.0,23.3,29.95,WNW,292,13.0,23.0,93,0.00,,---,0.17,VWS V14.01,2013-04-02 00:55:00,
2013-04-01 21:00:00,24.0,22.5,29.95,West,270,13.0,23.0,94,0.00,,---,0.17,VWS V14.01,2013-04-02 01:00:00,
2013-04-01 21:05:00,24.0,22.5,29.95,WSW,248,10.0,17.0,94,0.00,,---,0.17,VWS V14.01,2013-04-02 01:05:00,
2013-04-01 21:10:00,25.0,23.5,29.95,West,270,8.0,17.0,94,0.00,,---,0.17,VWS V14.01,2013-04-02 01:10:00,
2013-04-01 21:15:00,25.0,23.5,29.95,WSW,248,8.0,17.0,94,0.00,,---,0.17,VWS V14.01,2013-04-02 01:15:00,
2013-04-01 21:20:00,25.0,23.5,29.95,WSW,248,7.0,10.0,94,0.00,,---,0.17,VWS V14.01,2013-04-02 01:20:00,
2013-04-01 21:25:00,25.0,23.5,29.95,SW,225,6.0,11.0,94,0.00,,---,0.17,VWS V14.01,2013-04-02 01:25:00,
2013-04-01 21:31:00,25.0,23.3,29.95,WSW,248,5.0,11.0,93,0.00,,---,0.17,VWS V14.01,2013-04-02 01:31:00,
2013-04-01 21:36:00,25.0,23.3,29.95,West,270,5.0,11.0,93,0.00,,---,0.17,VWS V14.01,2013-04-02 01:36:00,
2013-04-01 21:41:00,25.0,23.3,29.95,West,270,5.0,7.0,93,0.00,,---,0.17,VWS V14.01,2013-04-02 01:41:00,
2013-04-01 21:47:00,25.0,23.3,29.95,WSW,248,7.0,10.0,93,0.00,,---,0.17,VWS V14.01,2013-04-02 01:47:00,
2013-04-01 21:52:00,25.0,23.0,29.95,WSW,248,5.0,10.0,92,0.00,,---,0.17,VWS V14.01,2013-04-02 01:52:00,
2013-04-01 21:57:00,25.0,23.0,29.95,West,270,6.0,10.0,92,0.00,,---,0.17,VWS V14.01,2013-04-02 01:57:00,
2013-04-01 22:02:00,25.0,23.0,29.95,WSW,248,3.0,7.0,92,0.00,,---,0.17,VWS V14.01,2013-04-02 02:02:00,
2013-04-01 22:07:00,25.0,23.0,29.95,WNW,292,8.0,10.0,92,0.00,,---,0.17,VWS V14.01,2013-04-02 02:07:00,
2013-04-01 22:12:00,25.0,23.0,29.95,West,270,6.0,10.0,92,0.00,,---,0.17,VWS V14.01,2013-04-02 02:12:00,
2013-04-01 22:17:00,25.0,22.8,29.96,NW,315,4.0,10.0,91,0.00,,---,0.17,VWS V14.01,2013-04-02 02:17:00,
2013-04-01 22:22:00,25.0,22.5,29.96,NNW,338,3.0,9.0,90,0.00,,---,0.17,VWS V14.01,2013-04-02 02:22:00,
2013-04-01 22:27:00,25.0,22.5,29.96,NW,315,2.0,9.0,90,0.00,,---,0.17,VWS V14.01,2013-04-02 02:27:00,
2013-04-01 22:33:00,25.0,22.5,29.95,WNW,292,4.0,9.0,90,0.00,,---,0.17,VWS V14.01,2013-04-02 02:33:00,
2013-04-01 22:38:00,25.0,22.5,29.96,WNW,292,3.0,9.0,90,0.00,,---,0.17,VWS V14.01,2013-04-02 02:38:00,
2013-04-01 22:43:00,25.0,22.8,29.96,WNW,292,4.0,6.0,91,0.00,,---,0.17,VWS V14.01,2013-04-02 02:43:00,
2013-04-01 22:48:00,25.0,22.8,29.96,NNW,338,0.0,6.0,91,0.00,,---,0.17,VWS V14.01,2013-04-02 02:48:00,
2013-04-01 22:53:00,25.0,22.8,29.96,NNW,338,3.0,10.0,91,0.00,,---,0.17,VWS V14.01,2013-04-02 02:53:00,
2013-04-01 22:58:00,25.0,23.0,29.96,NW,315,5.0,10.0,92,0.00,,---,0.17,VWS V14.01,2013-04-02 02:58:00,
2013-04-01 23:03:00,25.0,23.0,29.96,WNW,292,6.0,10.0,92,0.00,,---,0.17,VWS V14.01,2013-04-02 03:03:00,
2013-04-01 23:09:00,25.0,22.8,29.96,WNW,292,5.0,10.0,91,0.00,,---,0.17,VWS V14.01,2013-04-02 03:09:00,
2013-04-01 23:14:00,25.0,23.0,29.96,WNW,292,4.0,10.0,92,0.00,,---,0.17,VWS V14.01,2013-04-02 03:14:00,
2013-04-01 23:19:00,24.0,22.0,29.96,NW,315,5.0,10.0,92,0.00,,---,0.17,VWS V14.01,2013-04-02 03:19:00,
2013-04-01 23:24:00,24.0,22.0,29.96,NW,315,1.0,10.0,92,0.00,,---,0.17,VWS V14.01,2013-04-02 03:24:00,
2013-04-01 23:29:00,24.0,22.0,29.96,NW,315,2.0,10.0,92,0.00,,---,0.17,VWS V14.01,2013-04-02 03:29:00,
2013-04-01 23:34:00,24.0,22.0,29.96,NW,315,3.0,10.0,92,0.00,,---,0.17,VWS V14.01,2013-04-02 03:34:00,
2013-04-01 23:39:00,24.0,22.0,29.97,NW,315,5.0,10.0,92,0.00,,---,0.17,VWS V14.01,2013-04-02 03:39:00,
2013-04-01 23:45:00,24.0,21.5,29.97,WNW,292,3.0,11.0,90,0.00,,---,0.17,VWS V14.01,2013-04-02 03:45:00,
2013-04-01 23:50:00,24.0,21.8,29.97,WNW,292,3.0,11.0,91,0.00,,---,0.17,VWS V14.01,2013-04-02 03:50:00,
2013-04-01 23:55:00,24.0,22.0,29.97,NW,315,1.0,11.0,92,0.00,,---,0.17,VWS V14.01,2013-04-02 03:55:00,